Hagerstown, MD

4:27 PM EDT on October 19, 2017 (GMT -0400)
Hagerstown Regional-Henson

Weather History for KHGR - March, 2013

Change the Weather History Date:

Friday, March 29, 2013

  Actual Average Record
Temperature  
Mean Temperature 46 °F 46 °F  
Max Temperature 54 °F 56 °F 82 °F (1998)
Min Temperature 38 °F 37 °F 20 °F (2015)
Degree Days  
Heating Degree Days 19 19  
Month to date heating degree days 764 691  
Since 1 July heating degree days 4402 4594  
Cooling Degree Days 0 0  
Month to date cooling degree days 0 0  
Year to date cooling degree days 0 0  
Moisture  
Dew Point 28 °F    
Average Humidity 53    
Maximum Humidity 70    
Minimum Humidity 35    
Precipitation  
Precipitation 0.00 in 0.14 in 0.87 in (2001)
Month to date precipitation 1.39 3.09  
Year to date precipitation 5.62 8.32  
Sea Level Pressure  
Sea Level Pressure 30.24 in    
Wind  
Wind Speed 6 mph (NW)    
Max Wind Speed 20 mph    
Max Gust Speed 24 mph    
Visibility 10 miles    
Events      
T = Trace of Precipitation, MM = Missing Value Source: NWS Daily Summary

Daily Weather History Graph

Daily Weather History Graph

Search for Another Location

Airport or City:

Trip Planner

Search our weather history database for the weather conditions in past years. The results will help you decide how hot, cold, wet, or windy it might be!

Date:

Astronomy

Mar. 29, 2013 Rise Set
Actual Time 6:59 AM EDT 7:32 PM EDT
Civil Twilight 6:32 AM EDT 7:59 PM EDT
Nautical Twilight 6:00 AM EDT 8:31 PM EDT
Astronomical Twilight 5:27 AM EDT 9:04 PM EDT
Moon 10:29 PM EDT (3/29) 8:07 AM EDT (3/29)
Length of Visible Light 13h 26m
Length of Day
12h 32m
Waning Gibbous, 93% of the Moon is Illuminated
Mar 29
Waning Gibbous
Apr 3
Last Quarter
Apr 10
New
Apr 18
First Quarter
Apr 25
Full

Hourly Weather History & Observations

Time (EDT) Temp. Windchill Dew Point Humidity Pressure Visibility Wind Dir Wind Speed Gust Speed Precip Events Conditions
12:53 AM 41.0 °F 35.8 °F 28.9 °F 62% 30.27 in 10.0 mi NW 8.1 mph - N/A   Overcast
1:53 AM 41.0 °F 36.4 °F 27.0 °F 57% 30.27 in 10.0 mi NNW 6.9 mph - N/A   Overcast
2:53 AM 39.9 °F 36.7 °F 27.0 °F 60% 30.27 in 10.0 mi WNW 4.6 mph - N/A   Overcast
3:53 AM 39.0 °F - 28.0 °F 65% 30.26 in 10.0 mi Calm Calm - N/A   Overcast
4:53 AM 37.9 °F 34.4 °F 28.9 °F 70% 30.26 in 10.0 mi West 4.6 mph - N/A   Overcast
5:53 AM 37.9 °F 32.7 °F 28.9 °F 70% 30.26 in 10.0 mi WNW 6.9 mph - N/A   Overcast
6:53 AM 37.9 °F 35.5 °F 28.9 °F 70% 30.27 in 10.0 mi WNW 3.5 mph - N/A   Overcast
7:53 AM 39.0 °F 36.8 °F 28.9 °F 67% 30.28 in 10.0 mi West 3.5 mph - N/A   Overcast
8:53 AM 41.0 °F - 28.9 °F 62% 30.29 in 10.0 mi Calm Calm - N/A   Overcast
9:53 AM 42.1 °F 39.2 °F 30.0 °F 62% 30.28 in 10.0 mi NNW 4.6 mph - N/A   Overcast
10:53 AM 44.1 °F 42.5 °F 30.9 °F 60% 30.28 in 10.0 mi Variable 3.5 mph - N/A   Overcast
11:53 AM 48.0 °F - 30.9 °F 52% 30.26 in 10.0 mi NNW 5.8 mph - N/A   Overcast
12:53 PM 48.9 °F - 28.9 °F 46% 30.24 in 10.0 mi NNW 8.1 mph - N/A   Overcast
1:53 PM 50.0 °F - 27.0 °F 41% 30.22 in 10.0 mi NW 10.4 mph - N/A   Overcast
2:53 PM 52.0 °F - 26.1 °F 37% 30.20 in 10.0 mi North 10.4 mph - N/A   Overcast
3:53 PM 51.1 °F - 25.0 °F 36% 30.19 in 10.0 mi WNW 16.1 mph 23.0 mph N/A   Overcast
4:53 PM 52.0 °F - 25.0 °F 35% 30.17 in 10.0 mi WNW 13.8 mph - N/A   Partly Cloudy
5:53 PM 51.1 °F - 25.0 °F 36% 30.17 in 10.0 mi NW 8.1 mph - N/A   Partly Cloudy
6:53 PM 51.1 °F - 27.0 °F 39% 30.18 in 10.0 mi NNW 10.4 mph - N/A   Mostly Cloudy
7:53 PM 46.9 °F - 28.0 °F 48% 30.19 in 10.0 mi North 5.8 mph - N/A   Mostly Cloudy
8:53 PM 45.0 °F 42.6 °F 28.0 °F 52% 30.21 in 10.0 mi NNE 4.6 mph - N/A   Scattered Clouds
9:53 PM 44.1 °F 41.5 °F 27.0 °F 51% 30.22 in 10.0 mi NNE 4.6 mph - N/A   Partly Cloudy
10:53 PM 43.0 °F - 28.9 °F 58% 30.23 in 10.0 mi Calm Calm - N/A   Overcast
11:53 PM 42.1 °F - 28.9 °F 60% 30.22 in 10.0 mi Calm Calm - N/A   Overcast